User: anonymous   Login
Location: Unspecified
(0.0000°N, 0.0000°E)
Time: 03:44:56
(UTC+00:00)
Language:

LANDSAT 8 - Orbit

View from above orbital plane
View from above orbital plane
View from above satellite
View from above satellite

Ground track
Ground track

The orbit data is extracted from the following two-line orbital elements,

1 39084U 13008A   17176.60452246 +.00000048 +00000-0 +20778-4 0  9997
2 39084 098.2230 246.9475 0001386 100.8948 259.2406 14.57107349220457
Epoch (UTC): 25 June 2017 14:30:30
Eccentricity: 0.0001386
inclination: 98.2230°
perigee height: 701 km
apogee height: 703 km
right ascension of ascending node: 246.9475°
argument of perigee: 100.8948°
revolutions per day: 14.57107349
mean anomaly at epoch: 259.2406°
orbit number at epoch: 22045

The dashed part of the orbit path shows where the satellite is in the earth's shadow,  

DLR